Regional Weather Roundup
Issued by NWS Charleston, WV

Home | Current Version | Previous Version | Graphics & Text | Print | Product List | Glossary On
Versions: 1 2 3 4 5 6 7 8 9 10 11 12 13 14 15 16 17 18 19 20 21 22 23 24 25 26 27 28 29 30 31 32 33 34 35 36 37 38 39 40 41 42 43 44 45 46 47 48 49 50
053
ASUS41 KRLX 200110
RWRRLX
West Virginia Regional Weather Roundup
National Weather Service Charleston WV
900 PM EDT THU APR 19 2018

Note: "fair" indicates few or no clouds below 12,000 feet with no
significant weather and/or obstructions to visibility.

WVZ003-200200-
Northern Panhandle of West Virginia

CITY           SKY/WX    TMP DP  RH WIND       PRES   REMARKS
WHEELING       FAIR      42  22  44 W7        30.19R
$$

WVZ009-200200-
Northwest West Virginia

CITY           SKY/WX    TMP DP  RH WIND       PRES   REMARKS
PARKERSBURG    FAIR      45  27  49 W5        30.26R
$$

WVZ006-200200-
Western West Virginia

CITY           SKY/WX    TMP DP  RH WIND       PRES   REMARKS
HUNTINGTON     FAIR      45  27  49 CALM      30.27R
$$

WVZ015-200200-
West Central West Virginia

CITY           SKY/WX    TMP DP  RH WIND       PRES   REMARKS
CHARLESTON     FAIR      44  27  51 W5        30.26R
$$

WVZ022-031-200200-
North Central West Virginia

CITY           SKY/WX    TMP DP  RH WIND       PRES   REMARKS
CLARKSBURG     MOCLDY    43  28  55 W5        30.20R
MORGANTOWN     FAIR      41  30  65 CALM      30.21R
$$

WVZ025-035-042-045-200200-
Southern West Virginia

CITY           SKY/WX    TMP DP  RH WIND       PRES   REMARKS
BECKLEY        MOCLDY    36  26  67 NW7       30.21R
LOGAN          FAIR      41  28  60 CALM      30.26R
BLUEFIELD      MOCLDY    35  25  66 NW8       30.21R
LEWISBURG      FAIR      37  27  68 NW5       30.20R
$$

WVZ047-200200-
Northern Mountains of West Virginia

CITY           SKY/WX    TMP DP  RH WIND       PRES   REMARKS
ELKINS         MOCLDY    37  25  61 SW6       30.19R
$$

WVZ052-200200-
Eastern Panhandle of West Virginia

CITY           SKY/WX    TMP DP  RH WIND       PRES   REMARKS
MARTINSBURG    FAIR      43  24  47 NW15      30.12R
PETERSBURG     FAIR      41  27  56 NW9       30.16R
$$




USA.gov is the U.S. government's official web portal to all federal, state and local government web resources and services.